Regional Weather Roundup
Issued by NWS

Home | Current Version | Previous Version | Text Only | Print | Product List | Glossary Off
Versions: 1 2 3 4 5 6 7 8 9 10 11 12 13 14 15 16 17 18 19 20 21 22 23 24 25 26 27 28 29 30 31 32 33 34 35 36 37 38 39 40 41 42 43 44 45 46 47 48 49 50

000
ASUS43 KIND 301909
RWRIN

WEATHER ROUNDUP FOR INDIANA
NATIONAL WEATHER SERVICE INDIANAPOLIS IN
300 PM EDT SAT JUL 30 2016

NOTE: "FAIR" INDICATES FEW OR NO CLOUDS BELOW 12,000 FEET WITH NO
SIGNIFICANT WEATHER AND/OR OBSTRUCTIONS TO VISIBILITY.

* - STATION DOES NOT REPORT WEATHER SUCH AS PRECIPITATION OR FOG.

+ - STATION NOT QUALITY CONTROLLED BY THE NATIONAL WEATHER SERVICE.
    USE DATA WITH CAUTION...ESPECIALLY DEWPOINT AND RELATIVE
    HUMIDITY OBSERVATIONS.

INZ001>003-010>013-019-020-302000-
NORTHWEST INDIANA

CITY           SKY/WX    TMP DP  RH WIND       PRES   REMARKS
GARY /AIRPORT/ PTSUNNY   77  72  83 NE9       29.98S
KNOX *+        PTSUNNY   75  59  57 CALM      29.96F
LA PORTE +     SUNNY     79  69  71 NE5       29.98F
MICHIGAN CITY+ PTSUNNY   77  68  73 CALM      29.97F
MONTICELLO +   PTSUNNY   78  65  65 CALM      29.95F
RENSSELAER +   MOSUNNY   77  70  78 CALM      29.96F
VALPARAISO     CLOUDY    75  68  78 NE6       29.97F

$$

LMZ046-743>745-302000-
SOUTHERN LAKE MICHIGAN

STATION/POSITION TIME  TEMP    WIND        PRES    WAVE
                       AIR SEA DIR/SP/G            HT
                 (UTC) (F)     (DEG/KT/KT) (MB)    (FT)
BURNS HARBOR     1809   71      40/  8/ 10 1015.6F
MICHIGAN CITY    1800   71     350/  7/  8   N/A
5NW MICH CITY    1800   71 72   30/  6/  8   N/A     2

$$

INZ004-005-014>016-021>024-302000-
NORTH CENTRAL INDIANA

CITY           SKY/WX    TMP DP  RH WIND       PRES   REMARKS
ELKHART        PTSUNNY   77  64  65 E6        29.98F
GOSHEN         MOSUNNY   77  64  64 CALM      29.97F
LOGANSPORT +   CLOUDY    79  68  69 NW5       29.96F
PERU/GRISSOM   MOSUNNY   81  69  67 SW5       29.94F
ROCHESTER +    MOSUNNY   81  70  69 NE5       29.96F
SOUTH BEND     PTSUNNY   78  66  66 N5        29.97F
WARSAW +       CLOUDY    75  66  73 N3        29.97S

$$

INZ006>009-017-018-025>027-302000-
NORTHEAST INDIANA

CITY           SKY/WX    TMP DP  RH WIND       PRES   REMARKS
ANGOLA *+        N/A     73  68  83 N3        29.98S
AUBURN +       PTSUNNY   75  66  73 CALM      29.98F
FORT WAYNE     CLOUDY    80  67  64 CALM      29.96F
HUNTINGTON +   PTSUNNY   78  69  74 S5        29.96S

$$

INZ028-029-035-036-043>045-051>053-302000-
WEST CENTRAL INDIANA

CITY           SKY/WX    TMP DP  RH WIND       PRES   REMARKS
CRAWFORDSVL +  PTSUNNY   80  67  65 SW7       29.97F
GREENCASTLE +  MOSUNNY   81  70  69 W8        29.98F
LAFAYETTE      CLOUDY    73  69  87 N7        29.96S
TERRE HAUTE    PTSUNNY   82  65  56 W6        29.97F

$$

INZ030>032-037>040-046>048-054>057-064-065-302000-
CENTRAL INDIANA

CITY           SKY/WX    TMP DP  RH WIND       PRES   REMARKS
ANDERSON       PTSUNNY   82  70  65 N6        29.96
COLUMBUS       MOSUNNY   82  68  61 NW5       29.96F
INDIANAPOLIS   MOSUNNY   84  64  50 W10       29.96F
-EAGLE CREEK   MOSUNNY   85  64  49 W6        29.95F
KOKOMO *+      MOSUNNY   82  66  57 NW6       29.96F
MARION +       MOSUNNY   79  68  69 NW5       29.97F
MT COMFORT *+  MOSUNNY   84  63  48 W8        29.96F
SHELBYVILLE    SUNNY     84  66  54 SW10      29.95F
ZIONSVILLE +   MOSUNNY   81  66  60 W10       29.97F

$$

INZ033-034-041-042-049-050-058-059-302000-
EAST CENTRAL INDIANA

CITY           SKY/WX    TMP DP  RH WIND       PRES   REMARKS
MUNCIE         MOSUNNY   83  69  62 NW7       29.96F

$$

INZ060-061-067>069-081>083-085>088-302000-
SOUTHWEST INDIANA

CITY           SKY/WX    TMP DP  RH WIND       PRES   REMARKS
EVANSVILLE     MOSUNNY   84  70  62 W6        29.97F
HUNTINGBURG *+ PTSUNNY   79  72  78 NE6       29.97F
WASHINGTON +   PTSUNNY   83  72  69 MISG      29.97S

$$

INZ062-063-066-070>080-084-089>092-302000-
SOUTH CENTRAL AND SOUTHEAST INDIANA

CITY           SKY/WX    TMP DP  RH WIND       PRES   REMARKS
BLOOMINGTON    MOSUNNY   82  68  62 SW9       29.98F
MADISON *+     PTSUNNY   81  68  65 SW3       29.99F
NORTH VERNON + PTSUNNY   82  72  69 CALM      29.97
SEYMOUR +      CLOUDY    86  66  51 CALM      29.96F

$$





USA.gov is the U.S. government's official web portal to all federal, state and local government web resources and services.